星链-30077 (STARLINK-30077 )

导读 | 豆包AI

STARLINK-30077是美国SpaceX星链星座的卫星,于2023年7月28日发射入轨,属于星链第二代组网卫星,主要为全球提供高速低延迟互联网服务,尤其覆盖偏远地区与移动场景,是星链大规模商业组网进程中的组成单元,依托近地轨道部署,实现全球网络互联覆盖。

基本信息
目录编号:
57460
目录名称:
STARLINK-30077
国际标识:
2023-107D
轨道中心:
EARTH
卫星名称:
星链-30077
卫星全名:
星链-30077 (STARLINK-30077 )
卫星状态:
在轨 (已飞行1007 天)
发射日期:
2023-07-28 UTC
国别 :
美国 (US)
星等 :
--
轨道信息
数据来源 国际轨道数据
星历时间: 2026-04-30T11:56:03+0800
11小时前
查看轨道信息
半长轴: 6861.174km
偏心率: 0.0001306
轨道倾角: 43.006°
近地点辐角 268.269°
升交点赤经 45.045°
平近点角 91.801°
近地点: 482.14km
远地点: 483.934km
周期: 94.266分钟
每日圈数: 15.275842
详细信息
固有亮度:
5
最大亮度:
0.3
卫星平台:
Starlink v2.0 mini
覆盖范围:
全球
运营商:
太空探索技术公司
运营商所在国:
美国
制造商(研发单位):
太空探索技术公司
制造商所在国:
美国
使用方式:
暂无
卫星简介
星链(Starlink)计划是由太空探索技术公司(SpaceX)提出的一个巨型低轨卫星互联网星座项目,计划在2019年至2024年间在太空搭建由约1.2万颗卫星组成的“星链”网络,其中1584颗将部署在地球上空550千米处的近地轨道,并从2020年开始工作。该卫星仍在工作。
2D轨道图
3D轨道图
轨道高度分析图
轨道倾角分析图
轨道综合分析图
查看轨道综合分析图